Location: Bear Wallow Creek
(36.9636°N, 119.1287°W)
Time: 03:27:41
(UTC+00:00)

Daily predictions for brighter satellites

Satellite Brightness Start Highest point End
(mag) Time Altitude Azimuth Time Altitude Azimuth Time Altitude Azimuth
Cosmos 2297 3.7 01:56:19 10° SSW 02:01:58 72° ESE 02:07:35 10° NNE
STARLINK-50 3.8 02:00:33 10° SSW 02:04:29 55° SE 02:08:25 10° NE
STARLINK-59 3.7 02:02:15 10° SW 02:06:12 61° SE 02:10:10 10° NE
STARLINK-64 3.2 02:04:04 10° SW 02:07:38 89° SE 02:11:15 10° NE
STARLINK-56 3.7 02:03:49 10° SSW 02:07:46 59° SE 02:11:44 10° NE
STARLINK-1010 3.8 02:05:55 10° SSW 02:08:40 31° SE 02:11:26 10° ENE
STARLINK-73 3.6 02:05:27 10° SW 02:09:25 62° SE 02:13:23 10° NE
Cosmos 2061 Rocket 4.1 02:03:57 10° S 02:10:16 63° E 02:16:35 10° NNE
Cosmos 1459 Rocket 4.0 02:04:25 10° S 02:10:28 90° ESE 02:16:33 10° N
STARLINK-38 3.6 02:07:07 10° SW 02:11:05 65° SE 02:15:04 10° NE
STARLINK-65 3.6 02:08:46 10° SW 02:12:44 67° SE 02:16:44 10° NE
STARLINK-1008 3.6 02:10:21 10° SSW 02:13:13 36° SE 02:16:07 10° ENE
Cosmos 1992 Rocket 4.2 02:08:50 10° SSW 02:14:02 77° WNW 02:19:19 10° NNE
STARLINK-1016 3.5 02:11:30 10° SSW 02:14:23 37° SE 02:17:13 10° ENE
STARLINK-53 3.5 02:10:29 10° SW 02:14:29 74° SE 02:18:29 10° NE
STARLINK-1025 3.5 02:12:04 10° SSW 02:14:58 38° SE 02:17:49 10° ENE
STARLINK-1017 3.5 02:12:55 10° SSW 02:15:49 39° SE 02:18:38 11° ENE
Cosmos 292 Rocket 3.9 02:11:01 10° SSW 02:15:50 85° WNW 02:20:40 10° NNE
STARLINK 1040 2.9 02:14:00 10° SSW 02:16:44 49° SE 02:19:20 11° ENE
STARLINK-1029 4.0 02:14:27 10° SSW 02:17:12 28° SE 02:19:38 12° ENE
Abrixas rocket 3.0 02:15:37 10° NW 02:18:16 29° NNE 02:20:27 13° E
STARLINK-1028 3.4 02:15:26 10° SSW 02:18:23 42° SE 02:21:07 12° ENE
Cosmos 2369 Rocket 3.1 02:13:47 10° SSE 02:18:23 26° ESE 02:23:02 10° NE
STARLINK-1048 3.4 02:15:31 10° SSW 02:18:29 42° SE 02:21:14 12° ENE
STARLINK-1021 3.3 02:16:22 10° SSW 02:19:20 43° SE 02:22:02 12° ENE
STARLINK-1049 3.3 02:16:24 10° SSW 02:19:22 43° SE 02:22:05 12° ENE
STARLINK-1019 3.3 02:17:20 10° SSW 02:20:18 44° SE 02:22:59 12° ENE
STARLINK-1051 3.3 02:17:21 10° SSW 02:20:19 44° SE 02:23:00 12° ENE
Cosmos 1238 Rocket 3.9 02:14:46 10° S 02:20:37 78° E 02:27:12 10° N
Cosmos 1725 Rocket 4.0 02:14:46 10° S 02:20:46 57° E 02:26:49 10° NNE
STARLINK-1012 3.2 02:18:19 10° SSW 02:21:19 46° SE 02:23:58 13° ENE
Cosmos 1486 Rocket 4.5 02:17:45 10° NNW 02:22:56 67° WSW 02:28:06 10° S
STARLINK-1026 3.2 02:20:16 10° SSW 02:23:17 49° SE 02:25:53 13° ENE
STARLINK-61 4.3 02:20:16 10° WSW 02:24:03 48° NW 02:27:50 10° NE
STARLINK-1013 3.1 02:21:17 10° SSW 02:24:19 50° SE 02:26:52 14° ENE
STARLINK-1009 3.1 02:22:18 10° SSW 02:25:21 52° SE 02:27:51 14° ENE
STARLINK-1015 3.1 02:23:15 10° SSW 02:26:20 54° SE 02:28:51 14° ENE
Cosmos 2082 Rocket 2.5 02:24:26 10° NNW 02:30:04 71° WSW 02:35:41 10° SSE
Cosmos 1802 Rocket 4.3 02:25:14 10° S 02:31:27 76° W 02:37:48 10° N
H-2A R/B 3.4 02:28:08 11° ESE 02:31:31 19° ENE 02:35:12 10° NNE
YAOGAN 1 2.5 02:27:23 10° SSE 02:31:42 74° ENE 02:36:01 10° N
Cosmos 921 Rocket 3.5 02:28:15 10° S 02:32:26 40° E 02:36:39 10° NNE
Cosmos 2346 Rocket 4.5 02:26:15 10° N 02:32:27 62° E 02:38:32 10° SSE
Meteor 1-27 Rocket 4.3 02:27:34 10° N 02:32:33 34° ENE 02:37:35 10° SE
Cosmos 1354 Rocket 3.9 02:29:14 10° NNW 02:34:32 75° ENE 02:39:47 10° SSE
Tsikada Rocket 4.1 02:31:58 10° N 02:38:13 56° E 02:44:29 10° SSE
Cosmos 1633 3.8 02:35:59 10° SSW 02:39:23 44° W 02:42:51 10° N
Cosmos 1864 Rocket 4.4 02:34:10 10° S 02:40:22 86° E 02:46:33 10° N
Cosmos 1633 Rocket 3.0 02:38:08 10° S 02:42:22 57° E 02:46:38 10° NNE
Lacrosse 4 Rocket 2.8 02:38:37 10° SW 02:42:29 38° WNW 02:46:30 10° N
Cosmos 1782 4.0 02:38:55 10° NNW 02:42:46 46° W 02:46:34 10° SSW
NOSS 3-1 (C) 3.1 02:37:37 10° SSW 02:42:55 80° ESE 02:48:58 10° NE
Cosmos 1666 Rocket 3.5 02:40:15 10° S 02:44:42 78° E 02:49:11 10° N
STARLINK-1027 4.4 02:41:40 10° SSW 02:45:33 35° SE 02:47:21 24° E
Ariane Rocket 3.5 02:41:11 10° SE 02:45:49 37° ENE 02:50:28 10° N
STARLINK-24 4.1 02:42:07 10° WSW 02:46:04 57° NW 02:49:20 14° NE
Cosmos 1862 3.5 02:43:14 10° SSW 02:47:14 74° W 02:51:13 10° N
SL-4 R/B 2.9 02:45:33 10° NW 02:50:00 39° NNE 02:51:56 26° E
BREEZE-M DEB (TANK) 4.4 02:30:06 10° NW 02:51:52 79° SW 02:56:30 12° SE
USA 267 3.6 02:48:25 17° ENE 02:53:13 43° SE 02:59:22 10° SSW
STARLINK-81 4.1 02:49:58 10° WSW 02:53:55 53° NW 02:56:48 17° NE
STARLINK-1052 4.4 02:50:45 10° SSW 02:54:27 33° SE 02:55:24 29° ESE
CSL-04 Rocket 3.9 02:49:45 10° S 02:55:18 77° WSW 03:00:51 10° NNW
STARLINK-54 4.4 02:51:54 10° WSW 02:55:46 47° NW 02:58:39 17° NNE
STARLINK-77 4.3 02:53:18 10° WSW 02:57:13 50° NW 02:59:58 18° NNE
STARLINK-25 4.3 02:55:00 10° WSW 02:58:53 48° NW 03:01:35 18° NNE
deb Kosmos-1763 3.9 02:55:28 10° NNW 02:59:08 78° ENE 03:02:47 10° SSE
ARGOS 3.9 03:00:26 27° E 03:01:44 30° ENE 03:06:25 10° N
STARLINK-79 4.4 02:58:21 10° WSW 03:02:12 45° NW 03:04:46 19° NNE
STARLINK-1033 4.1 03:00:28 10° SSW 03:04:21 40° SE 03:04:55 38° ESE
CRYOSAT 2 4.2 02:59:55 10° SSE 03:04:47 77° E 03:09:42 10° N
STARLINK-1014 3.4 03:05:38 10° WSW 03:08:59 61° NW 03:09:59 39° NNE
Cosmos 1346 Rocket 3.5 03:07:52 10° SSE 03:10:36 35° SE 03:10:36 35° SE
Cosmos 1340 2.6 03:08:45 10° S 03:12:26 59° E 03:12:51 54° ENE
STARLINK-1024 3.7 03:10:19 10° SSW 03:14:19 51° SE 03:14:34 50° ESE
NOSS 2-3 (E) 3.5 03:10:39 10° SSW 03:14:46 62° ESE 03:15:58 43° ENE
CZ-4 R/B 3.9 03:11:58 10° SSW 03:15:24 24° W 03:18:51 10° NW
Cosmos 2233 Rocket 4.0 03:09:22 10° S 03:15:29 81° W 03:21:41 10° N
Hubble Space Telescope 3.1 03:15:45 10° S 03:16:57 12° SSE 03:16:57 12° SSE
Cosmos 1812 3.1 03:20:02 10° NNW 03:23:50 62° W 03:27:39 10° S
STARLINK-1032 3.6 03:20:09 10° SW 03:24:08 64° SE 03:24:08 64° SE
Cosmos 1470 Rocket 3.4 03:20:15 10° S 03:24:34 86° W 03:28:57 10° N
Aureole 2 Rocket 3.8 03:22:33 10° SSW 03:23:49 24° SW 03:23:49 24° SW
STARLINK-1011 3.6 03:25:05 10° SW 03:28:53 68° S 03:28:53 68° S
NOSS 2-3 (D) 3.4 03:25:19 10° SSW 03:29:30 83° ESE 03:30:01 68° NE
USA 229 DEB 4.4 03:24:36 10° SW 03:30:52 49° NW 03:37:27 10° NNE
USA 229 4.4 03:24:42 10° SW 03:30:58 50° NW 03:37:33 10° NNE
ADEOS Rocket 4.3 03:24:21 10° N 03:31:50 55° WNW 03:39:16 10° SW
Cosmos 1943 Rocket 3.0 03:28:38 10° SW 03:34:03 50° WNW 03:39:29 10° NNE
STARLINK-1036 3.7 03:30:01 10° SW 03:33:40 67° SSW 03:33:40 67° SSW
Meteor 1-22 4.4 03:30:21 10° S 03:35:40 67° E 03:40:58 10° NNE
Cosmos 1862 Rocket 3.6 03:31:30 10° N 03:35:49 74° W 03:38:28 23° S
OAO 1 4.5 03:30:37 10° W 03:36:06 73° S 03:36:56 61° SE
NOSS 3-1 (A) 3.5 03:32:38 10° SW 03:37:58 64° NW 03:42:10 20° NNE
DNEPR-1 R/B 4.3 03:32:04 10° NNW 03:39:06 88° WSW 03:41:18 41° SSE
STARLINK-1044 3.9 03:34:58 10° SW 03:38:27 62° SW 03:38:27 62° SW
MOS 1 4.2 03:35:47 16° SSE 03:40:23 86° ENE 03:46:04 10° NNW
Cosmos 1513 Rocket 4.3 03:38:30 10° S 03:44:27 65° E 03:50:29 10° NNE
BREEZE-M DEB (TANK) 3.8 03:40:14 10° WNW 03:45:38 41° SW 03:45:39 41° SW
STARLINK-1037 4.4 03:44:58 10° SW 03:48:04 48° WSW 03:48:04 48° WSW
Meteor 2-11 Rocket 4.5 03:44:50 10° S 03:53:45 33° NNE 03:56:57 10° NNE
Cosmos 1891 Rocket 4.3 03:45:52 10° S 03:51:56 77° E 03:58:10 10° N
Cosmos 1777 Rocket 4.3 03:47:40 10° NNW 03:52:54 64° WSW 03:54:39 40° SSW
Cosmos 2369 Rocket 3.5 03:56:57 10° SW 04:02:10 38° WNW 04:07:27 10° N
H-2A R/B 2.8 04:08:44 37° SSW 04:10:28 52° W 04:15:43 10° NNW
CZ-2C R/B 3.6 04:10:04 54° SSW 04:11:11 65° W 04:16:58 10° NNW
ATLAS CENTAUR Rocket 4.1 04:10:47 10° SSW 04:49:22 - E 04:13:36 29° S
Cosmos 1464 Rocket 4.2 04:09:48 10° SSW 04:16:05 70° W 04:22:28 10° N
Cosmos 1656 Rocket 4.3 04:11:22 10° SSW 04:15:34 50° WSW 04:15:34 50° WSW
Cosmos 2285 Rocket 4.2 04:15:02 10° NNW 04:21:05 69° W 04:21:05 69° W
FALCON 9 R/B 3.5 04:10:07 10° W 04:23:32 42° SW 04:24:17 40° SSW
USA 267 3.8 04:35:48 50° NNW 04:36:14 51° NW 04:42:29 10° WSW
USA 267 4.4 11:16:25 10° ESE 11:20:16 37° E 11:20:16 37° E
